TimeCDT,TemperatureF,Dew PointF,Humidity,Sea Level PressureIn,VisibilityMPH,Wind Direction,Wind SpeedMPH,Gust SpeedMPH,PrecipitationIn,Events,Conditions,WindDirDegrees,DateUTC
12:53 AM,66.9,62.1,84,29.96,10.0,NNE,4.6,-,N/A,,Clear,30,2013-08-08 05:53:00
1:53 AM,68.0,62.1,81,29.97,10.0,NNE,5.8,-,N/A,,Clear,30,2013-08-08 06:53:00
2:53 AM,70.0,62.1,76,29.94,10.0,East,9.2,16.1,N/A,,Clear,90,2013-08-08 07:53:00
3:53 AM,68.0,62.1,81,29.94,10.0,East,6.9,-,N/A,,Clear,80,2013-08-08 08:53:00
4:53 AM,66.9,62.1,84,29.95,10.0,East,4.6,-,N/A,,Clear,90,2013-08-08 09:53:00
5:53 AM,66.9,62.1,84,29.95,10.0,ENE,4.6,-,N/A,,Clear,70,2013-08-08 10:53:00
6:53 AM,66.9,62.1,84,29.99,10.0,SE,5.8,-,N/A,,Clear,140,2013-08-08 11:53:00
7:53 AM,68.0,62.1,81,29.99,10.0,Calm,Calm,-,N/A,,Clear,0,2013-08-08 12:53:00
8:53 AM,68.0,62.1,81,29.99,10.0,ESE,3.5,-,N/A,,Clear,110,2013-08-08 13:53:00
9:53 AM,69.1,62.1,78,29.97,10.0,ENE,4.6,-,N/A,,Clear,70,2013-08-08 14:53:00
10:53 AM,70.0,63.0,78,29.95,10.0,NE,9.2,-,N/A,,Clear,40,2013-08-08 15:53:00
11:53 AM,71.1,63.0,75,29.98,10.0,East,4.6,-,N/A,,Mostly Cloudy,80,2013-08-08 16:53:00
12:53 PM,72.0,63.0,73,29.99,10.0,East,5.8,-,N/A,,Partly Cloudy,80,2013-08-08 17:53:00
1:53 PM,73.9,64.0,71,29.99,10.0,NNE,4.6,-,N/A,,Overcast,30,2013-08-08 18:53:00
2:53 PM,75.0,64.0,69,29.98,10.0,NE,5.8,-,N/A,,Partly Cloudy,40,2013-08-08 19:53:00
3:53 PM,73.9,64.9,73,29.99,10.0,North,4.6,-,N/A,,Scattered Clouds,350,2013-08-08 20:53:00
4:53 PM,75.9,64.9,69,29.99,10.0,North,3.5,-,N/A,,Clear,10,2013-08-08 21:53:00
5:53 PM,75.0,64.9,71,29.99,10.0,North,5.8,-,N/A,,Clear,350,2013-08-08 22:53:00
6:53 PM,75.9,64.9,69,29.98,10.0,North,3.5,-,N/A,,Partly Cloudy,10,2013-08-08 23:53:00
7:53 PM,73.0,66.9,81,29.98,10.0,Calm,Calm,-,N/A,,Clear,0,2013-08-09 00:53:00
8:53 PM,71.1,66.9,87,29.98,10.0,Calm,Calm,-,N/A,,Clear,0,2013-08-09 01:53:00
9:53 PM,70.0,66.9,90,29.99,10.0,Calm,Calm,-,N/A,,Clear,0,2013-08-09 02:53:00
10:53 PM,69.1,66.9,93,30.01,10.0,Calm,Calm,-,N/A,,Scattered Clouds,0,2013-08-09 03:53:00
11:53 PM,69.1,66.0,90,30.00,10.0,NNE,3.5,-,N/A,,Partly Cloudy,20,2013-08-09 04:53:00